Location: Praha
(50.0830°N, 14.4670°E)
Time: 15:06:29
(UTC+02:00)

ISS - Pass Details

Date: 03 June 2019
Orbit: 408 x 418 km, 51.6° (Epoch: 19 June)

Event Time Altitude Azimuth Distance (km) Brightness Sun altitude
Rises 22:25:35 0° 280° (W) 2,355 0.8 -9.9°
Reaches altitude 10° 22:28:41 10° 249° (WSW) 1,490 -0.8 -10.2°
Maximum altitude 22:30:05 12° 224° (SW) 1,364 -1.3 -10.3°
Drops below altitude 10° 22:31:29 10° 199° (SSW) 1,488 -1.3 -10.4°
Enters shadow 22:32:05 - 190° (S) 1,607 -1.2 -10.5°
